Jacksonville, FL

2:24 PM EDT on September 29, 2016 (GMT -0400)
Craig Municipal

Weather History for KCRG - May, 2013

Change the Weather History Date:

Friday, May 31, 2013

  Actual Average Record
Temperature  
Mean Temperature 78 °F -  
Max Temperature 84 °F 85 °F 99 °F (2004)
Min Temperature 73 °F 67 °F 64 °F (2000)
Cooling Degree Days 14    
Growing Degree Days 28 (Base 50)    
Moisture  
Dew Point 69 °F    
Average Humidity 70    
Maximum Humidity 85    
Minimum Humidity 58    
Precipitation  
Precipitation 0.00 in - - ()
Sea Level Pressure  
Sea Level Pressure 30.14 in    
Wind  
Wind Speed 9 mph (SE)    
Max Wind Speed 17 mph    
Max Gust Speed 25 mph    
Visibility 10 miles    
Events      
Averages and records for this station are not official NWS values.
T = Trace of Precipitation, MM = Missing Value Source: NWS Daily Summary

Daily Weather History Graph

Daily Weather History Graph

Search for Another Location

Airport or City:

Trip Planner

Search our weather history database for the weather conditions in past years. The results will help you decide how hot, cold, wet, or windy it might be!

Date:

Astronomy

May. 31, 2013 Rise Set
Actual Time 6:24 AM EDT 8:22 PM EDT
Civil Twilight 5:57 AM EDT 8:50 PM EDT
Nautical Twilight 5:24 AM EDT 9:23 PM EDT
Astronomical Twilight 4:49 AM EDT 9:58 PM EDT
Moon 1:16 AM EDT (5/31) 1:16 PM EDT (5/31)
Length of Visible Light 14h 52m
Length of Day
13h 58m
Waning Gibbous, 51% of the Moon is Illuminated
May 31
Waning Gibbous
May 31
Last Quarter
Jun 8
New
Jun 16
First Quarter
Jun 23
Full

Hourly Weather History & Observations

Time (EDT) Temp. Heat Index Dew Point Humidity Pressure Visibility Wind Dir Wind Speed Gust Speed Precip Events Conditions
12:53 AM 75.9 °F - 70.0 °F 82% 30.16 in 10.0 mi SE 4.6 mph - N/A   Partly Cloudy
1:53 AM 75.0 °F - 69.1 °F 82% 30.15 in 10.0 mi SE 5.8 mph - N/A   Clear
2:53 AM 75.0 °F - 69.1 °F 82% 30.13 in 10.0 mi SE 3.5 mph - N/A   Clear
3:53 AM 73.9 °F - 69.1 °F 85% 30.12 in 10.0 mi SE 3.5 mph - N/A   Partly Cloudy
4:53 AM 73.9 °F - 69.1 °F 85% 30.12 in 10.0 mi Calm Calm - N/A   Clear
5:53 AM 73.0 °F - 68.0 °F 84% 30.13 in 10.0 mi ESE 3.5 mph - N/A   Clear
6:53 AM 75.0 °F - 69.1 °F 82% 30.13 in 10.0 mi ESE 4.6 mph - N/A   Clear
7:53 AM 78.1 °F - 69.1 °F 74% 30.14 in 10.0 mi SE 9.2 mph - N/A   Clear
8:44 AM 80.6 °F 83.9 °F 69.8 °F 70% 30.15 in 10.0 mi ESE 11.5 mph 23.0 mph N/A   Mostly Cloudy
8:53 AM 80.1 °F 82.9 °F 69.1 °F 69% 30.15 in 10.0 mi SE 11.5 mph 19.6 mph N/A   Mostly Cloudy
9:11 AM 80.6 °F 83.9 °F 69.8 °F 70% 30.15 in 10.0 mi ESE 13.8 mph 20.7 mph N/A   Scattered Clouds
9:19 AM 80.6 °F 83.9 °F 69.8 °F 70% 30.15 in 10.0 mi ESE 11.5 mph 20.7 mph N/A   Mostly Cloudy
9:53 AM 81.0 °F 83.8 °F 68.0 °F 65% 30.16 in 10.0 mi ESE 13.8 mph 20.7 mph N/A   Mostly Cloudy
10:27 AM 82.4 °F 85.4 °F 68.0 °F 62% 30.17 in 10.0 mi ESE 15.0 mph 21.9 mph N/A   Mostly Cloudy
10:41 AM 82.4 °F 85.4 °F 68.0 °F 62% 30.17 in 10.0 mi ESE 13.8 mph 21.9 mph N/A   Mostly Cloudy
10:53 AM 82.0 °F 84.9 °F 68.0 °F 62% 30.17 in 10.0 mi SE 17.3 mph 25.3 mph N/A   Mostly Cloudy
11:53 AM 84.0 °F 87.0 °F 68.0 °F 58% 30.18 in 10.0 mi SE 15.0 mph 25.3 mph N/A   Mostly Cloudy
12:48 PM 82.4 °F 85.4 °F 68.0 °F 62% 30.17 in 10.0 mi SE 13.8 mph 21.9 mph N/A   Overcast
12:53 PM 82.9 °F 86.5 °F 69.1 °F 63% 30.17 in 10.0 mi ESE 15.0 mph 20.7 mph N/A   Overcast
1:53 PM 82.9 °F 85.8 °F 68.0 °F 60% 30.17 in 10.0 mi SE 17.3 mph 23.0 mph N/A   Mostly Cloudy
2:08 PM 82.4 °F 86.3 °F 69.8 °F 66% 30.16 in 10.0 mi SSE 13.8 mph 19.6 mph N/A   Overcast
2:53 PM 82.9 °F 86.5 °F 69.1 °F 63% 30.15 in 10.0 mi SE 12.7 mph 21.9 mph N/A   Mostly Cloudy
3:00 PM 82.4 °F 86.3 °F 69.8 °F 66% 30.15 in 10.0 mi SE 10.4 mph 21.9 mph N/A   Mostly Cloudy
3:53 PM 82.0 °F 85.5 °F 69.1 °F 65% 30.14 in 10.0 mi ESE 13.8 mph 20.7 mph N/A   Mostly Cloudy
4:07 PM 82.4 °F 86.3 °F 69.8 °F 66% 30.13 in 10.0 mi SE 13.8 mph 20.7 mph N/A   Mostly Cloudy
4:43 PM 84.2 °F 87.3 °F 68.0 °F 58% 30.12 in 10.0 mi SE 11.5 mph 23.0 mph N/A   Mostly Cloudy
4:53 PM 82.9 °F 85.8 °F 68.0 °F 60% 30.12 in 10.0 mi SE 13.8 mph 25.3 mph N/A   Mostly Cloudy
5:53 PM 82.0 °F 85.5 °F 69.1 °F 65% 30.11 in 10.0 mi SE 12.7 mph 20.7 mph N/A   Mostly Cloudy
6:32 PM 82.4 °F 86.3 °F 69.8 °F 66% 30.11 in 10.0 mi ESE 15.0 mph 20.7 mph N/A   Mostly Cloudy
6:53 PM 81.0 °F 84.1 °F 69.1 °F 67% 30.11 in 10.0 mi ESE 11.5 mph - N/A   Mostly Cloudy
7:38 PM 78.8 °F - 69.8 °F 74% 30.12 in 10.0 mi ESE 8.1 mph 17.3 mph N/A   Scattered Clouds
7:53 PM 79.0 °F - 69.1 °F 72% 30.12 in 10.0 mi ESE 8.1 mph - N/A   Partly Cloudy
8:53 PM 78.1 °F - 70.0 °F 76% 30.12 in 10.0 mi ESE 6.9 mph - N/A   Partly Cloudy
9:53 PM 77.0 °F - 69.1 °F 76% 30.14 in 10.0 mi ESE 4.6 mph - N/A   Partly Cloudy
10:53 PM 77.0 °F - 70.0 °F 79% 30.14 in 10.0 mi SE 5.8 mph - N/A   Mostly Cloudy
11:53 PM 75.9 °F - 69.1 °F 79% 30.13 in 10.0 mi SE 5.8 mph - N/A   Clear